Weather History for KPSC - March, 2014

Change the Weather History Date:

Thursday, March 6, 2014

  Actual Average Record
Temperature  
Mean Temperature 53 °F 43 °F  
Max Temperature 62 °F 56 °F 70 °F (2005)
Min Temperature 44 °F 31 °F 20 °F (2008)
Degree Days  
Heating Degree Days 12 22  
Month to date heating degree days 145 135  
Since 1 July heating degree days 4374 4018  
Cooling Degree Days 0 0  
Month to date cooling degree days 0 0  
Year to date cooling degree days 0 0  
Growing Degree Days 4 (Base 50)    
Moisture  
Dew Point 40 °F    
Average Humidity 60    
Maximum Humidity 77    
Minimum Humidity 42    
Precipitation  
Precipitation T in 0.02 in 0.23 in (1957)
Month to date precipitation 0.26 0.15  
Year to date precipitation 1.24 2.23  
Snow  
Snow 0.00 in - - ()
Snow Depth 0.00 in    
Sea Level Pressure  
Sea Level Pressure 29.77 in    
Wind  
Wind Speed 17 mph (SW)    
Max Wind Speed 37 mph    
Max Gust Speed 46 mph    
Visibility 10 miles    
Events      
T = Trace of Precipitation, MM = Missing Value Source: NWS Daily Summary

Daily Weather History Graph

Daily Weather History Graph

Search for Another Location

Airport or City:

Trip Planner

Search our weather history database for the weather conditions in past years. The results will help you decide how hot, cold, wet, or windy it might be!

Date:

Astronomy

Mar. 06, 2014 Rise Set
Actual Time 6:26 AM PST 5:49 PM PST
Civil Twilight 5:56 AM PST 6:19 PM PST
Nautical Twilight 5:21 AM PST 6:54 PM PST
Astronomical Twilight 4:46 AM PST 7:29 PM PST
Moon 9:18 AM PST (3/6) No Moon Set
Length of Visible Light 12h 23m
Length of Day
11h 23m
Waxing Crescent, 33% of the Moon is Illuminated
Mar 6
Waxing Crescent
Mar 8
First Quarter
Mar 16
Full
Mar 23
Last Quarter
Mar 30
New

Hourly Weather History & Observations

Time (PST) Temp. Windchill Dew Point Humidity Pressure Visibility Wind Dir Wind Speed Gust Speed Precip Events Conditions
12:53 AM 54.0 °F - 48.0 °F 80% 29.59 in 10.0 mi SSW 13.8 mph - 0.00 in   Clear
1:53 AM 54.0 °F - 46.0 °F 75% 29.62 in 10.0 mi SSW 17.3 mph - N/A   Clear
2:53 AM 54.0 °F - 41.0 °F 62% 29.63 in 10.0 mi WSW 16.1 mph - N/A   Clear
3:53 AM 53.1 °F - 39.9 °F 61% 29.65 in 10.0 mi WSW 17.3 mph - N/A   Clear
4:53 AM 52.0 °F - 37.9 °F 59% 29.67 in 10.0 mi SW 11.5 mph - N/A   Clear
5:53 AM 45.0 °F 42.6 °F 37.9 °F 76% 29.69 in 10.0 mi East 4.6 mph - N/A   Clear
6:53 AM 46.0 °F 41.9 °F 37.9 °F 73% 29.70 in 10.0 mi SE 8.1 mph - N/A   Clear
7:53 AM 50.0 °F - 39.9 °F 68% 29.71 in 10.0 mi SSE 8.1 mph - N/A   Clear
8:53 AM 54.0 °F - 39.0 °F 57% 29.71 in 10.0 mi SSW 11.5 mph - N/A   Clear
9:53 AM 60.1 °F - 39.0 °F 46% 29.72 in 10.0 mi SSW 17.3 mph 24.2 mph N/A   Partly Cloudy
10:53 AM 60.1 °F - 37.9 °F 44% 29.71 in 10.0 mi SSW 17.3 mph 25.3 mph N/A   Clear
11:53 AM 60.1 °F - 37.0 °F 42% 29.70 in 10.0 mi SSW 15.0 mph 25.3 mph N/A   Overcast
12:53 PM 62.1 °F - 39.0 °F 43% 29.69 in 10.0 mi SW 17.3 mph 21.9 mph N/A   Overcast
1:53 PM 60.1 °F - 39.0 °F 46% 29.71 in 10.0 mi WSW 32.2 mph 40.3 mph N/A   Overcast
2:53 PM 57.0 °F - 39.9 °F 53% 29.75 in 10.0 mi SW 31.1 mph 39.1 mph 0.00 in   Overcast
3:53 PM 54.0 °F - 39.9 °F 59% 29.80 in 10.0 mi SW 33.4 mph 41.4 mph N/A   Overcast
4:53 PM 53.1 °F - 39.0 °F 59% 29.84 in 10.0 mi SW 25.3 mph 36.8 mph N/A   Overcast
5:53 PM 53.1 °F - 39.9 °F 61% 29.88 in 10.0 mi SW 20.7 mph 29.9 mph N/A   Scattered Clouds
6:53 PM 53.1 °F - 39.9 °F 61% 29.91 in 10.0 mi SW 26.5 mph 32.2 mph N/A   Clear
7:53 PM 52.0 °F - 39.9 °F 63% 29.92 in 10.0 mi SW 24.2 mph - N/A   Clear
8:53 PM 50.0 °F - 39.0 °F 66% 29.96 in 10.0 mi SW 23.0 mph 27.6 mph N/A   Clear
9:53 PM 50.0 °F - 39.9 °F 68% 29.99 in 10.0 mi SW 21.9 mph 28.8 mph N/A   Clear
10:53 PM 48.9 °F - 41.0 °F 74% 30.01 in 10.0 mi WSW 19.6 mph - N/A   Clear
11:53 PM 48.9 °F - 39.9 °F 71% 30.03 in 10.0 mi WSW 16.1 mph - N/A   Clear